Location: Stuttgart
(48.8069°N, 9.1544°E)
Time: 03:01:10
(UTC+02:00)

ISS - Pass Details

Date: 09 May 2021
Orbit: 417 x 422 km, 51.6° (Epoch: 15 June)

Event Time Altitude Azimuth Distance (km) Brightness Sun altitude
Exits shadow 02:02:02 24° 75° (ENE) 909 -1.9 -23.2°
Drops below altitude 10° 02:03:34 10° 71° (ENE) 1,512 -0.6 -23.1°
Sets 02:05:40 0° 70° (ENE) 2,378 0.5 -23.0°
